This is the latest recevied weather packets stored in our database for station/object ac2ev. If no packets are shown the sender has not sent any weather packets the latest 1 day(s).
| Time | Temp. | Humidity | Pressure | Rain* | Wind** | Luminosity | Snow |
|---|---|---|---|---|---|---|---|
| 1777989962 | 21.67° C | 56% | 1001.4 hPa | 0 mm | 2.24 m/s, 240° | - | - |
| 1777989663 | 21.67° C | 56% | 1001.2 hPa | 0 mm | 2.24 m/s, 234° | - | - |
| 1777989362 | 21.67° C | 56% | 1001.3 hPa | 0 mm | 1.79 m/s, 221° | - | - |
| 1777989063 | 21.11° C | 57% | 1001.2 hPa | 0 mm | 1.34 m/s, 231° | - | - |
| 1777988762 | 21.11° C | 57% | 1001.3 hPa | 0 mm | 1.79 m/s, 259° | - | - |
| 1777988463 | 21.11° C | 57% | 1001.2 hPa | 0 mm | 1.79 m/s, 230° | - | - |
| 1777988163 | 21.11° C | 58% | 1001.2 hPa | 0 mm | 1.34 m/s, 234° | - | - |
| 1777987863 | 21.11° C | 59% | 1001.2 hPa | 0 mm | 1.34 m/s, 211° | - | - |
| 1777987562 | 20.56° C | 59% | 1001 hPa | 0 mm | 0.45 m/s, 219° | - | - |
| 1777987263 | 20.56° C | 61% | 1001.1 hPa | 0 mm | 0.45 m/s, 207° | - | - |
| 1777986962 | 20.56° C | 62% | 1001.2 hPa | 0 mm | 0 m/s | - | - |
| 1777986663 | 20° C | 62% | 1001.1 hPa | 0 mm | 0 m/s | - | - |
| 1777986363 | 20° C | 63% | 1001.2 hPa | 0 mm | 0 m/s | - | - |
| 1777986063 | 20° C | 63% | 1001.2 hPa | 0 mm | 0 m/s | - | - |
| 1777985763 | 20° C | 63% | 1001.2 hPa | 0 mm | 0 m/s | - | - |
| 1777985460 | 20° C | 63% | 1001.1 hPa | 0 mm | 0 m/s | - | - |
| 1777985161 | 20° C | 63% | 1001.1 hPa | 0 mm | 0 m/s | - | - |
| 1777984860 | 20° C | 63% | 1001.1 hPa | 0 mm | 0.45 m/s, 0° | - | - |
| 1777984560 | 20° C | 62% | 1001.1 hPa | 0 mm | 0.45 m/s, 0° | - | - |
| 1777984260 | 19.44° C | 64% | 1001.2 hPa | 0 mm | 0.45 m/s, 0° | - | - |
| 1777983960 | 19.44° C | 64% | 1001.1 hPa | 0 mm | 0.45 m/s, 223° | - | - |
| 1777983660 | 19.44° C | 65% | 1001 hPa | 0 mm | 0.45 m/s, 211° | - | - |
| 1777983360 | 19.44° C | 64% | 1000.9 hPa | 0 mm | 0 m/s | - | - |
| 1777983060 | 19.44° C | 65% | 1000.8 hPa | 0 mm | 0 m/s | - | - |
| 1777982821 | 18.89° C | 66% | 1000.8 hPa | 0 mm | 0 m/s | - | - |
* Rain latest hour (hover to see other rain measurements)
** Current wind speed in m/s (hover to see current wind gust speed)